O3B FM3

Last updated on Thu Sep 10 2026 00:03:17 GMT+0000 (Coordinated Universal Time)

1 40079U 14038A 26252.25969684 -.00000028 00000+0 00000+0 0 9991 2 40079 0.0485 353.3528 0003477 219.4027 147.2218 5.00115781217254
UTC large
Height (km)
Speed (km/s)
/
Latitude / Longitude
Inclination (degrees)
Orbital Period (minutes)
Azimuth
Elevation
Range (km)
Doppler Factor

Next 0 passes for location: London (51.5072 / 0.1276)

No passes found over London.
O3B FM3